Change the Weather History Date:

Wednesday, August 21, 2013

  Actual Average Record
Temperature  
Mean Temperature 63 °F -  
Max Temperature 75 °F 68 °F 84 °F (1997)
Min Temperature 51 °F 50 °F 44 °F (1999)
Degree Days  
Heating Degree Days 2    
Growing Degree Days 13 (Base 50)    
Moisture  
Dew Point 52 °F    
Average Humidity 66    
Maximum Humidity 88    
Minimum Humidity 41    
Precipitation  
Precipitation 0.00 in - - ()
Sea Level Pressure  
Sea Level Pressure 30.25 in    
Wind  
Wind Speed 4 mph ()    
Max Wind Speed 7 mph    
Max Gust Speed -    
Visibility 6.1 miles    
Events      
Averages and records for this station are not official NWS values.
T = Trace of Precipitation, MM = Missing Value Source: Averaged Metar Reports

Daily Weather History Graph

Daily Weather History Graph

Search for Another Location

Airport or City:

Trip Planner

Search our weather history database for the weather conditions in past years. The results will help you decide how hot, cold, wet, or windy it might be!

Date:

Astronomy

Aug. 21, 2013 Rise Set
Actual Time 6:35 AM CEST 8:50 PM CEST
Civil Twilight 5:58 AM CEST 9:26 PM CEST
Nautical Twilight 5:12 AM CEST 10:12 PM CEST
Astronomical Twilight 4:18 AM CEST 11:05 PM CEST
Moon 8:35 PM CEST (8/21) 7:06 AM CEST (8/21)
Length of Visible Light 15h 28m
Length of Day
14h 15m
Full, 100% of the Moon is Illuminated
Aug 21
Full
Aug 28
Last Quarter
Sep 5
New
Sep 12
First Quarter
Sep 19
Full

Hourly Weather History & Observations

Time (CEST) Temp. Dew Point Humidity Pressure Visibility Wind Dir Wind Speed Gust Speed Precip Events Conditions
12:25 AM 59.0 °F 51.8 °F 77% 30.33 in 6.2 mi SE 6.9 mph - N/A   Unknown
12:55 AM 57.2 °F 51.8 °F 82% 30.33 in 6.2 mi SSE 5.8 mph - N/A   Unknown
1:25 AM 57.2 °F 51.8 °F 82% 30.33 in 6.2 mi SE 4.6 mph - N/A   Unknown
1:55 AM 55.4 °F 50.0 °F 82% 30.33 in 6.2 mi SSE 3.5 mph - N/A   Partly Cloudy
2:25 AM 55.4 °F 50.0 °F 82% 30.33 in 6.2 mi SSE 5.8 mph - N/A   Partly Cloudy
2:55 AM 55.4 °F 50.0 °F 82% 30.30 in 6.2 mi SSE 3.5 mph - N/A   Unknown
3:25 AM 55.4 °F 50.0 °F 82% 30.30 in 6.2 mi South 2.3 mph - N/A   Unknown
3:55 AM 53.6 °F 50.0 °F 88% 30.30 in 6.2 mi South 3.5 mph - N/A   Unknown
4:25 AM 53.6 °F 48.2 °F 82% 30.30 in 6.2 mi South 4.6 mph - N/A   Unknown
4:55 AM 53.6 °F 50.0 °F 88% 30.30 in 6.2 mi South 4.6 mph - N/A   Unknown
5:25 AM 53.6 °F 48.2 °F 82% 30.30 in 6.2 mi South 3.5 mph - N/A   Unknown
5:55 AM 51.8 °F 48.2 °F 88% 30.30 in 6.2 mi South 3.5 mph - N/A   Unknown
6:25 AM 51.8 °F 48.2 °F 88% 30.27 in 6.2 mi South 4.6 mph - N/A   Partly Cloudy
6:55 AM 51.8 °F 48.2 °F 88% 30.30 in 6.2 mi South 4.6 mph - N/A   Partly Cloudy
7:25 AM 53.6 °F 50.0 °F 88% 30.30 in 6.2 mi South 3.5 mph - N/A   Unknown
7:55 AM 55.4 °F 50.0 °F 82% 30.30 in 6.2 mi South 4.6 mph - N/A   Mostly Cloudy
8:25 AM 57.2 °F 51.8 °F 82% 30.30 in 6.2 mi SSW 4.6 mph - N/A   Mostly Cloudy
8:55 AM 59.0 °F 51.8 °F 77% 30.30 in 6.2 mi South 4.6 mph - N/A   Unknown
9:25 AM 60.8 °F 51.8 °F 72% 30.30 in 6.2 mi South 5.8 mph - N/A   Unknown
9:55 AM 64.4 °F 53.6 °F 68% 30.30 in 6.2 mi SSW 4.6 mph - N/A   Unknown
10:25 AM 66.2 °F 53.6 °F 64% 30.30 in 6.2 mi SSW 5.8 mph - N/A   Partly Cloudy
10:55 AM 68.0 °F 51.8 °F 56% 30.30 in 6.2 mi SW 4.6 mph - N/A   Partly Cloudy
11:25 AM 69.8 °F 53.6 °F 56% 30.27 in 6.2 mi South 5.8 mph - N/A   Unknown
11:55 AM 71.6 °F 51.8 °F 50% 30.27 in 6.2 mi South 5.8 mph - N/A   Partly Cloudy
12:25 PM 71.6 °F 51.8 °F 50% 30.27 in 6.2 mi SW 5.8 mph - N/A   Unknown
12:55 PM 73.4 °F 51.8 °F 47% 30.27 in 6.2 mi SSW 6.9 mph - N/A   Partly Cloudy
1:25 PM 73.4 °F 50.0 °F 44% 30.27 in 6.2 mi SSW 6.9 mph - N/A   Partly Cloudy
1:55 PM 73.4 °F 50.0 °F 44% 30.27 in 6.2 mi SSW 6.9 mph - N/A   Unknown
2:25 PM 73.4 °F 51.8 °F 47% 30.27 in 6.2 mi SW 4.6 mph - N/A   Mostly Cloudy
2:55 PM 73.4 °F 50.0 °F 44% 30.24 in 6.2 mi SSE 4.6 mph - N/A   Partly Cloudy
3:25 PM 75.2 °F 51.8 °F 44% 30.24 in 6.2 mi South 4.6 mph - N/A   Partly Cloudy
3:55 PM 75.2 °F 51.8 °F 44% 30.24 in 6.2 mi SSW 3.5 mph - N/A   Scattered Clouds
4:25 PM 75.2 °F 50.0 °F 41% 30.21 in 6.2 mi SSW 6.9 mph - N/A   Partly Cloudy
4:55 PM 75.2 °F 50.0 °F 41% 30.21 in 6.2 mi South 4.6 mph - N/A   Unknown
5:25 PM 75.2 °F 51.8 °F 44% 30.21 in 6.2 mi South 4.6 mph - N/A   Partly Cloudy
5:55 PM 75.2 °F 51.8 °F 44% 30.21 in 6.2 mi South 3.5 mph - N/A   Partly Cloudy
6:25 PM 75.2 °F 51.8 °F 44% 30.21 in 6.2 mi ESE 1.2 mph - N/A   Unknown
6:55 PM 75.2 °F 50.0 °F 41% 30.18 in 6.2 mi South 3.5 mph - N/A   Mostly Cloudy
7:25 PM 73.4 °F 51.8 °F 47% 30.18 in 6.2 mi SSE 3.5 mph - N/A   Unknown
7:55 PM 73.4 °F 53.6 °F 50% 30.18 in 6.2 mi South 2.3 mph - N/A   Unknown
8:25 PM 69.8 °F 53.6 °F 56% 30.18 in 6.2 mi South 1.2 mph - N/A   Unknown
8:55 PM 66.2 °F 55.4 °F 68% 30.18 in 6.2 mi SSE 1.2 mph - N/A   Unknown
9:07 PM 64.4 °F 55.4 °F 73% 30.18 in 3.7 mi SSE 1.2 mph - N/A   Haze
9:11 PM 64.4 °F 55.4 °F 73% 30.18 in 6.2 mi SSE 2.3 mph - N/A   Unknown
9:15 PM 64.4 °F 55.4 °F 73% 30.18 in - SSE 2.3 mph - N/A   Haze
9:19 PM 64.4 °F 55.4 °F 73% 30.18 in 6.2 mi SE 2.3 mph - N/A   Unknown
9:25 PM 64.4 °F 55.4 °F 73% 30.18 in 5.6 mi ESE 1.2 mph - N/A   Haze
9:38 PM 64.4 °F 55.4 °F 73% 30.18 in 6.2 mi Calm Calm - N/A   Unknown
9:55 PM 62.6 °F 53.6 °F 72% 30.18 in 6.2 mi South 1.2 mph - N/A   Unknown
10:25 PM 60.8 °F 53.6 °F 77% 30.18 in 6.2 mi South 1.2 mph - N/A   Unknown
10:55 PM 62.6 °F 53.6 °F 72% 30.18 in 6.2 mi South 2.3 mph - N/A   Unknown
11:25 PM 60.8 °F 53.6 °F 77% 30.18 in 6.2 mi South 2.3 mph - N/A   Unknown
11:55 PM 60.8 °F 53.6 °F 77% 30.18 in 6.2 mi South 2.3 mph - N/A   Unknown